Satellite: NOAA-10 Catalog number: 16969 Epoch time: 11173.53698638 Element set: 540 Inclination: 098.6184 deg RA of node: 203.2511 deg Eccentricity: 0.0011653 Arg of perigee: 206.4589 deg Mean anomaly: 153.6009 deg Mean motion: 14.27466237 rev/day Decay rate: 1.26e-06 rev/day^2 Epoch rev: 28841 Checksum: 310
Satellite: NOAA-11 Catalog number: 19531 Epoch time: 11173.36268988 Element set: 541 Inclination: 098.7513 deg RA of node: 260.7287 deg Eccentricity: 0.0011439 Arg of perigee: 169.5844 deg Mean anomaly: 190.5598 deg Mean motion: 14.14919201 rev/day Decay rate: 2.17e-06 rev/day^2 Epoch rev: 17348 Checksum: 326
Satellite: NOAA-12 Catalog number: 21263 Epoch time: 11173.49046337 Element set: 38 Inclination: 098.7482 deg RA of node: 191.3266 deg Eccentricity: 0.0012517 Arg of perigee: 167.0131 deg Mean anomaly: 193.1372 deg Mean motion: 14.25720235 rev/day Decay rate: 1.49e-06 rev/day^2 Epoch rev: 4516 Checksum: 275
Satellite: MET-3/5 Catalog number: 21655 Epoch time: 11180.89664957 Element set: 0148 Inclination: 082.5569 deg RA of node: 041.7960 deg Eccentricity: 0.0014411 Arg of perigee: 121.5468 deg Mean anomaly: 238.7106 deg Mean motion: 13.17028608 rev/day Decay rate: 5.1e-07 rev/day^2 Epoch rev: 95539 Checksum: 316
Satellite: MET-2/21 Catalog number: 22782 Epoch time: 11173.46300070 Element set: 128 Inclination: 082.5493 deg RA of node: 318.6907 deg Eccentricity: 0.0024098 Arg of perigee: 084.6065 deg Mean anomaly: 275.7837 deg Mean motion: 13.83659074 rev/day Decay rate: 3.0e-07 rev/day^2 Epoch rev: 89928 Checksum: 322
Satellite: OKEAN-4 Catalog number: 23317 Epoch time: 11173.89923597 Element set: 590 Inclination: 082.5399 deg RA of node: 007.8047 deg Eccentricity: 0.0023754 Arg of perigee: 098.7134 deg Mean anomaly: 261.6773 deg Mean motion: 14.83090269 rev/day Decay rate: 2.87e-06 rev/day^2 Epoch rev: 90139 Checksum: 337
Satellite: NOAA-14 Catalog number: 23455 Epoch time: 11173.41415782 Element set: 524 Inclination: 098.8523 deg RA of node: 255.9981 deg Eccentricity: 0.0008563 Arg of perigee: 266.4902 deg Mean anomaly: 093.5292 deg Mean motion: 14.13822841 rev/day Decay rate: 3.6e-07 rev/day^2 Epoch rev: 84981 Checksum: 319
Satellite: NOAA-15 Catalog number: 25338 Epoch time: 11173.50178069 Element set: 859 Inclination: 098.6540 deg RA of node: 159.5703 deg Eccentricity: 0.0011684 Arg of perigee: 078.2342 deg Mean anomaly: 282.0161 deg Mean motion: 14.24925286 rev/day Decay rate: 1.42e-06 rev/day^2 Epoch rev: 68148 Checksum: 313
Satellite: RESURS Catalog number: 25394 Epoch time: 11173.51690311 Element set: 826 Inclination: 098.2983 deg RA of node: 176.2453 deg Eccentricity: 0.0000729 Arg of perigee: 169.9733 deg Mean anomaly: 190.1462 deg Mean motion: 14.24234854 rev/day Decay rate: -3.1e-07 rev/day^2 Epoch rev: 67306 Checksum: 298
Satellite: FENGYUN1 Catalog number: 25730 Epoch time: 11180.95664908 Element set: 0362 Inclination: 098.8174 deg RA of node: 141.8709 deg Eccentricity: 0.0022517 Arg of perigee: 281.0351 deg Mean anomaly: 078.8289 deg Mean motion: 14.08657464 rev/day Decay rate: 8.89e-06 rev/day^2 Epoch rev: 62486 Checksum: 338
Satellite: OKEAN-0 Catalog number: 25860 Epoch time: 11173.52532202 Element set: 340 Inclination: 097.8853 deg RA of node: 139.8233 deg Eccentricity: 0.0001272 Arg of perigee: 039.3497 deg Mean anomaly: 320.7804 deg Mean motion: 14.73795459 rev/day Decay rate: 1.12e-06 rev/day^2 Epoch rev: 64144 Checksum: 289
Satellite: NOAA-16 Catalog number: 26536 Epoch time: 11173.53080197 Element set: 341 Inclination: 099.1387 deg RA of node: 204.1814 deg Eccentricity: 0.0010770 Arg of perigee: 022.6949 deg Mean anomaly: 337.4696 deg Mean motion: 14.12624718 rev/day Decay rate: -2.43e-06 rev/day^2 Epoch rev: 55411 Checksum: 297
Satellite: NOAA-17 Catalog number: 27453 Epoch time: 11173.44507397 Element set: 330 Inclination: 098.3779 deg RA of node: 212.9143 deg Eccentricity: 0.0012540 Arg of perigee: 130.9044 deg Mean anomaly: 229.3237 deg Mean motion: 14.24283886 rev/day Decay rate: -6.0e-08 rev/day^2 Epoch rev: 46740 Checksum: 299
Satellite: NOAA-18 Catalog number: 28654 Epoch time: 11173.41655203 Element set: 810 Inclination: 098.9960 deg RA of node: 124.5763 deg Eccentricity: 0.0015252 Arg of perigee: 089.6572 deg Mean anomaly: 270.6335 deg Mean motion: 14.11487098 rev/day Decay rate: 4.52e-06 rev/day^2 Epoch rev: 31366 Checksum: 312
Satellite: NOAA-19 Catalog number: 33591 Epoch time: 11173.41487868 Element set: 1 Inclination: 098.8261 deg RA of node: 113.4816 deg Eccentricity: 0.0013798 Arg of perigee: 325.6694 deg Mean anomaly: 034.3582 deg Mean motion: 14.11175692 rev/day Decay rate: -7.1e-07 rev/day^2 Epoch rev: 12212 Checksum: 302
/EX SB KEPS @ AMSAT $ORB11181.M Orbital Elements 11181.MISC
HR AMSAT ORBITAL ELEMENTS FOR MANNED AND MISCELLANEOUS SATELLITES FROM WA5QGD FORT WORTH,TX June 30, 2011 Send Subscribe/unsubscribe to KEPS at http://www.amsat.org/mailman/listinfo/keps BID: ORB11181.M TO ALL RADIO AMATEURS BT
Satellite: HUBBLE Catalog number: 20580 Epoch time: 11180.74813243 Element set: 789 Inclination: 028.4727 deg RA of node: 294.4017 deg Eccentricity: 0.0003480 Arg of perigee: 252.1362 deg Mean anomaly: 107.8827 deg Mean motion: 15.01409579 rev/day Decay rate: 7.69e-06 rev/day^2 Epoch rev: 96154 Checksum: 305
Satellite: ISS Catalog number: 25544 Epoch time: 11182.05639476 Element set: 631 Inclination: 051.6422 deg RA of node: 090.7842 deg Eccentricity: 0.0007882 Arg of perigee: 292.9233 deg Mean anomaly: 206.8702 deg Mean motion: 15.60874739 rev/day Decay rate: -3.910e-05 rev/day^2 Epoch rev: 72307 Checksum: 304
Satellite: CO-58 Catalog number: 28895 Epoch time: 11180.67453277 Element set: 0911 Inclination: 097.9660 deg RA of node: 056.5812 deg Eccentricity: 0.0017788 Arg of perigee: 178.2449 deg Mean anomaly: 181.8826 deg Mean motion: 14.60122839 rev/day Decay rate: 9.1e-07 rev/day^2 Epoch rev: 30206 Checksum: 340
Satellite: FALCON Catalog number: 30776 Epoch time: 11173.55069084 Element set: 112 Inclination: 035.4349 deg RA of node: 314.3657 deg Eccentricity: 0.0000316 Arg of perigee: 059.4625 deg Mean anomaly: 300.6144 deg Mean motion: 15.04692566 rev/day Decay rate: 1.314e-05 rev/day^2 Epoch rev: 23585 Checksum: 277
Satellite: MAST Catalog number: 31126 Epoch time: 11173.54201737 Element set: 190 Inclination: 097.8945 deg RA of node: 200.4658 deg Eccentricity: 0.0095185 Arg of perigee: 153.4065 deg Mean anomaly: 207.2049 deg Mean motion: 14.53760317 rev/day Decay rate: 3.30e-06 rev/day^2 Epoch rev: 22186 Checksum: 279
Satellite: CAPE1 Catalog number: 31130 Epoch time: 11180.62918386 Element set: 0212 Inclination: 097.8983 deg RA of node: 203.9015 deg Eccentricity: 0.0102980 Arg of perigee: 142.2882 deg Mean anomaly: 218.5572 deg Mean motion: 14.52411290 rev/day Decay rate: 2.06e-06 rev/day^2 Epoch rev: 22244 Checksum: 269
Satellite: COMPASS Catalog number: 32787 Epoch time: 11180.76519384 Element set: 0025 Inclination: 097.8474 deg RA of node: 244.3485 deg Eccentricity: 0.0016455 Arg of perigee: 132.7005 deg Mean anomaly: 227.5546 deg Mean motion: 14.82470036 rev/day Decay rate: 7.40e-06 rev/day^2 Epoch rev: 17142 Checksum: 297
Satellite: AAUSAT2 Catalog number: 32788 Epoch time: 11173.64105533 Element set: 9 Inclination: 097.8470 deg RA of node: 237.5825 deg Eccentricity: 0.0015696 Arg of perigee: 155.2374 deg Mean anomaly: 204.9533 deg Mean motion: 14.82645614 rev/day Decay rate: 9.01e-06 rev/day^2 Epoch rev: 17038 Checksum: 305
Satellite: DO-64 Catalog number: 32789 Epoch time: 11180.73282105 Element set: 0031 Inclination: 097.8571 deg RA of node: 245.5721 deg Eccentricity: 0.0016271 Arg of perigee: 130.8922 deg Mean anomaly: 229.3709 deg Mean motion: 14.83146593 rev/day Decay rate: 9.31e-06 rev/day^2 Epoch rev: 17144 Checksum: 303
Satellite: CO-66 Catalog number: 32791 Epoch time: 11180.71700236 Element set: 0020 Inclination: 097.8476 deg RA of node: 244.2373 deg Eccentricity: 0.0016953 Arg of perigee: 131.4383 deg Mean anomaly: 228.8270 deg Mean motion: 14.82151842 rev/day Decay rate: 1.12e-06 rev/day^2 Epoch rev: 17136 Checksum: 283
Satellite: RS-30 Catalog number: 32953 Epoch time: 11173.45977334 Element set: 841 Inclination: 082.5007 deg RA of node: 159.4452 deg Eccentricity: 0.0019749 Arg of perigee: 019.7868 deg Mean anomaly: 340.3973 deg Mean motion: 12.43013814 rev/day Decay rate: 1.0e-07 rev/day^2 Epoch rev: 13974 Checksum: 306
Satellite: TACSAT-3 Catalog number: 35001 Epoch time: 11173.85916380 Element set: 624 Inclination: 040.4530 deg RA of node: 138.2964 deg Eccentricity: 0.0023122 Arg of perigee: 255.4349 deg Mean anomaly: 104.3906 deg Mean motion: 15.49233901 rev/day Decay rate: 1.2546e-04 rev/day^2 Epoch rev: 11796 Checksum: 278
Satellite: PHARMSAT Catalog number: 35002 Epoch time: 11180.92021280 Element set: 0586 Inclination: 040.4690 deg RA of node: 093.2204 deg Eccentricity: 0.0025650 Arg of perigee: 311.4500 deg Mean anomaly: 048.4073 deg Mean motion: 15.48946266 rev/day Decay rate: 9.739e-05 rev/day^2 Epoch rev: 11908 Checksum: 271
Satellite: HAWKSAT1 Catalog number: 35003 Epoch time: 11181.85997355 Element set: 672 Inclination: 040.4593 deg RA of node: 056.3210 deg Eccentricity: 0.0020538 Arg of perigee: 334.5175 deg Mean anomaly: 025.4316 deg Mean motion: 15.67447219 rev/day Decay rate: 4.9667e-04 rev/day^2 Epoch rev: 11957 Checksum: 307
Satellite: CP6 Catalog number: 35004 Epoch time: 11180.92821697 Element set: 0672 Inclination: 040.4524 deg RA of node: 052.4083 deg Eccentricity: 0.0021225 Arg of perigee: 335.2459 deg Mean anomaly: 024.7283 deg Mean motion: 15.75497843 rev/day Decay rate: 9.9682e-04 rev/day^2 Epoch rev: 11952 Checksum: 310
